1508803200.53,16194,9.25,73070.3,-5.73,-6.81,-6.81,0,*5A
1508803201.78,16195,9.25,73072.5,-5.73,-6.93,-6.81,0,*58
1508803203.01,16196,9.25,73072.8,-5.73,-6.85,-6.81,0,*5C
1508803204.23,16197,9.25,73078.0,-5.73,-6.85,-6.85,0,*59
1508803205.48,16198,9.25,73084.0,-5.69,-6.73,-6.63,0,*5C
1508803206.7,16199,9.25,73080.8,-5.73,-6.81,-6.73,0,*5A
1508803207.92,16200,9.25,73084.8,-5.73,-6.73,-6.73,0,*54
1508803209.14,16201,9.25,73082.5,-5.73,-6.81,-6.73,0,*58
1508803210.36,16202,9.25,73068.8,-5.73,-6.85,-6.85,0,*56
1508803211.64,16203,9.25,73082.8,-5.73,-6.97,-6.93,0,*53
1508803212.91,16204,9.25,73094.0,-5.73,-6.97,-6.93,0,*54
1508803214.16,16205,9.25,73074.3,-5.73,-6.93,-6.85,0,*56
1508803215.38,16206,9.25,73080.0,-5.73,-6.81,-6.85,0,*56
1508803216.6,16207,9.25,73066.8,-5.73,-6.73,-6.73,0,*53
1508803217.85,16208,9.31,73084.8,-5.73,-6.85,-6.93,0,*5B
1508803219.09,16209,9.25,73078.5,-5.73,-6.85,-6.93,0,*5A
1508803220.31,16210,9.25,73080.5,-5.73,-6.85,-6.85,0,*55
1508803221.54,16211,9.25,73086.8,-5.73,-6.81,-6.73,0,*59
1508803222.76,16212,9.25,73086.8,-5.73,-6.73,-6.73,0,*57
1508803224.01,16213,9.25,73092.5,-5.75,-6.93,-6.93,0,*50
1508803225.21,16214,9.25,73082.5,-5.71,-6.77,-6.69,0,*5C
1508803226.48,16215,9.25,73090.0,-5.73,-6.97,-6.93,0,*54
1508803227.7,16216,9.25,73084.5,-5.73,-6.85,-6.73,0,*5A
1508803228.97,16217,9.25,73090.5,-5.73,-6.93,-6.93,0,*52
1508803230.2,16218,9.25,73092.5,-5.73,-6.85,-6.81,0,*59
1508803231.42,16219,9.25,73094.8,-5.73,-6.81,-6.73,0,*51
1508803232.65,16220,9.25,73090.8,-5.73,-6.81,-6.81,0,*56
1508803233.88,16221,9.25,73090.8,-5.73,-6.81,-6.73,0,*5A
1508803235.1,16222,9.25,73086.8,-5.73,-6.81,-6.73,0,*59
1508803236.33,16223,9.25,73094.3,-5.73,-6.81,-6.81,0,*55
1508803237.53,16224,9.25,73092.8,-5.75,-6.73,-6.73,0,*54
1508803238.72,16225,9.25,73092.0,-5.75,-6.73,-6.69,0,*5E
1508803239.91,16226,9.25,73076.5,-5.75,-6.69,-6.69,0,*56
1508803241.14,16227,9.31,73082.0,-5.73,-6.81,-6.81,0,*51
1508803242.36,16228,9.25,73094.0,-5.73,-6.73,-6.73,0,*5E
1508803243.58,16229,9.25,73068.0,-5.73,-6.81,-6.73,0,*52
1508803244.83,16230,9.25,73076.0,-5.73,-6.93,-6.85,0,*50
1508803246.06,16231,9.25,73082.3,-5.73,-6.85,-6.81,0,*52
1508803247.29,16232,9.25,73078.3,-5.73,-6.81,-6.81,0,*55
1508803248.49,16233,9.25,73082.8,-5.75,-6.81,-6.73,0,*5F
1508803249.69,16234,9.25,73076.3,-5.75,-6.81,-6.73,0,*58
1508803250.92,16235,9.25,73080.3,-5.73,-6.81,-6.73,0,*5F
1508803252.13,16236,9.25,73074.3,-5.73,-6.73,-6.73,0,*51
1508803253.36,16237,9.25,73082.8,-5.73,-6.81,-6.73,0,*5D
1508803254.55,16238,9.25,73082.5,-5.75,-6.73,-6.73,0,*59
1508803255.78,16239,9.25,73082.5,-5.73,-6.73,-6.81,0,*53
1508803257.0,16240,9.25,73078.3,-5.73,-6.73,-6.73,0,*50
1508803258.22,16241,9.25,73078.3,-5.73,-6.73,-6.69,0,*5A
1508803259.41,16242,9.25,73074.3,-5.75,-6.73,-6.69,0,*5F
1508803260.64,16243,9.25,73078.0,-5.73,-6.85,-6.81,0,*57
1508803261.86,16244,9.25,73080.3,-5.73,-6.73,-6.73,0,*54
1508803263.08,16245,9.25,73078.0,-5.73,-6.73,-6.73,0,*55
1508803264.31,16246,9.25,73074.3,-5.73,-6.81,-6.81,0,*56
1508803265.53,16247,9.25,73080.8,-5.73,-6.85,-6.81,0,*53
1508803266.76,16248,9.25,73082.8,-5.73,-6.85,-6.81,0,*5C
1508803267.99,16249,9.25,73078.0,-5.73,-6.85,-6.81,0,*5D
1508803269.24,16250,9.25,73074.8,-5.73,-6.93,-6.81,0,*52
1508803270.46,16251,9.25,73070.5,-5.73,-6.85,-6.85,0,*50
1508803271.69,16252,9.25,73074.5,-5.73,-6.85,-6.81,0,*57
1508803272.91,16253,9.25,73068.8,-5.73,-6.85,-6.73,0,*5B
1508803274.16,16254,9.25,73084.5,-5.73,-6.93,-6.85,0,*52
1508803275.36,16255,9.25,73076.5,-5.75,-6.81,-6.81,0,*52
1508803276.58,16256,9.25,73072.5,-5.73,-6.73,-6.69,0,*5C
1508803277.78,16257,9.25,73076.5,-5.75,-6.73,-6.59,0,*58
1508803279.0,16258,9.25,73074.0,-5.73,-6.69,-6.59,0,*5A
1508803280.22,16259,9.25,73078.8,-5.73,-6.69,-6.59,0,*5B
1508803281.44,16260,9.25,73078.8,-5.73,-6.73,-6.59,0,*5A
1508803282.64,16261,9.25,73072.5,-5.75,-6.81,-6.73,0,*58
1508803283.87,16262,9.25,73066.3,-5.73,-6.85,-6.81,0,*54
1508803285.09,16263,9.25,73064.3,-5.73,-6.73,-6.73,0,*51
1508803286.29,16264,9.25,73062.3,-5.75,-6.81,-6.81,0,*50
1508803287.5,16265,9.25,73064.0,-5.75,-6.81,-6.81,0,*51
1508803288.72,16266,9.25,73066.5,-5.73,-6.81,-6.69,0,*52
1508803289.94,16267,9.25,73066.3,-5.73,-6.73,-6.69,0,*5E
1508803291.16,16268,9.25,73066.5,-5.73,-6.81,-6.73,0,*57
1508803292.41,16269,9.25,73058.5,-5.73,-6.85,-6.93,0,*5C
1508803293.68,16270,9.25,73066.0,-5.73,-6.97,-6.97,0,*53
1508803294.89,16271,9.25,73058.5,-5.75,-6.81,-6.81,0,*54
1508803296.08,16272,9.25,73066.3,-5.75,-6.73,-6.73,0,*57
1508803297.28,16273,9.25,73056.8,-5.75,-6.73,-6.73,0,*56
1508803298.47,16274,9.25,73060.0,-5.75,-6.73,-6.73,0,*51
1508803299.67,16275,9.25,73058.0,-5.75,-6.81,-6.73,0,*5D
1508803300.88,16276,9.25,73060.3,-5.75,-6.81,-6.73,0,*5E
1508803302.08,16277,9.25,73066.3,-5.75,-6.81,-6.81,0,*52
1508803303.28,16278,9.25,73052.3,-5.75,-6.81,-6.73,0,*50
1508803304.51,16279,9.25,73072.3,-5.73,-6.81,-6.81,0,*5A
1508803305.76,16280,9.25,73066.0,-5.73,-6.85,-6.93,0,*5B
1508803306.96,16281,9.25,73066.3,-5.75,-6.81,-6.85,0,*5F
1508803308.16,16282,9.25,73080.8,-5.75,-6.85,-6.81,0,*5C
1508803309.36,16283,9.25,73080.5,-5.75,-6.85,-6.73,0,*50
1508803310.58,16284,9.25,73070.8,-5.73,-6.73,-6.73,0,*58
1508803311.81,16285,9.25,73082.8,-5.73,-6.85,-6.81,0,*5D
1508803313.0,16286,9.25,73086.5,-5.75,-6.73,-6.69,0,*57
1508803314.22,16287,9.25,73074.0,-5.73,-6.73,-6.69,0,*50
1508803315.44,16288,9.25,73074.3,-5.73,-6.73,-6.73,0,*54
1508803316.67,16289,9.25,73082.5,-5.73,-6.81,-6.81,0,*55
1508803317.86,16290,9.25,73074.5,-5.75,-6.73,-6.73,0,*5B
1508803319.09,16291,9.25,73076.5,-5.73,-6.81,-6.73,0,*51
1508803320.29,16292,9.25,73076.3,-5.75,-6.81,-6.73,0,*54
1508803321.48,16293,9.25,73080.8,-5.75,-6.73,-6.73,0,*58
1508803322.71,16294,9.25,73078.5,-5.73,-6.73,-6.81,0,*54
1508803323.91,16295,9.25,73076.5,-5.75,-6.85,-6.81,0,*5A
1508803325.13,16296,9.25,73078.5,-5.73,-6.73,-6.73,0,*5B
1508803326.33,16297,9.25,73074.5,-5.75,-6.73,-6.73,0,*5C
1508803327.54,16298,9.25,73072.3,-5.73,-6.69,-6.69,0,*55
1508803328.74,16299,9.25,73080.0,-5.75,-6.73,-6.73,0,*52
1508803329.93,16300,9.25,73072.3,-5.75,-6.81,-6.69,0,*55
1508803331.13,16301,9.25,73072.3,-5.75,-6.73,-6.73,0,*52
1508803332.33,16302,9.25,73080.8,-5.75,-6.81,-6.73,0,*5C
1508803333.55,16303,9.25,73080.8,-5.73,-6.73,-6.59,0,*5E
1508803334.75,16304,9.25,73080.5,-5.75,-6.81,-6.73,0,*5A
1508803335.96,16305,9.25,73074.3,-5.75,-6.73,-6.81,0,*5B
1508803337.16,16306,9.25,73070.5,-5.75,-6.85,-6.81,0,*51
1508803338.37,16307,9.25,73068.5,-5.75,-6.81,-6.81,0,*54
1508803339.59,16308,9.25,73062.0,-5.73,-6.85,-6.73,0,*54
1508803340.79,16309,9.25,73064.8,-5.75,-6.81,-6.81,0,*5A
1508803341.99,16310,9.25,73074.3,-5.75,-6.73,-6.73,0,*52
1508803343.19,16311,9.25,73068.0,-5.75,-6.73,-6.59,0,*5B
1508803344.39,16312,9.25,73060.8,-5.75,-6.81,-6.73,0,*5D
1508803345.59,16313,9.25,73068.3,-5.75,-6.81,-6.73,0,*5C
1508803346.79,16314,9.25,73072.0,-5.75,-6.81,-6.73,0,*5B
1508803347.99,16315,9.25,73070.8,-5.75,-6.73,-6.73,0,*57
1508803349.18,16316,9.25,73068.5,-5.75,-6.73,-6.73,0,*54
1508803350.41,16317,9.25,73080.3,-5.73,-6.81,-6.73,0,*5E
1508803351.62,16318,9.25,73066.3,-5.75,-6.81,-6.81,0,*5A
1508803352.82,16319,9.25,73056.8,-5.75,-6.81,-6.73,0,*56
1508803354.04,16320,9.25,73058.3,-5.73,-6.85,-6.81,0,*53
1508803355.27,16321,9.25,73056.5,-5.73,-6.85,-6.81,0,*52
1508803356.49,16322,9.25,73050.3,-5.75,-6.93,-6.85,0,*54
1508803357.74,16323,9.25,73066.3,-5.75,-6.97,-6.93,0,*56
1508803359.02,16324,9.25,73062.8,-5.73,-6.97,-6.93,0,*57
1508803360.24,16325,9.25,73082.3,-5.75,-6.93,-6.85,0,*53
1508803361.44,16326,9.25,73078.3,-5.75,-6.85,-6.73,0,*5E
1508803362.64,16327,9.25,73062.3,-5.75,-6.85,-6.81,0,*52
1508803363.89,16328,9.25,73062.0,-5.75,-6.93,-6.97,0,*5D
1508803365.14,16329,9.25,73088.3,-5.75,-6.93,-6.97,0,*5C
1508803366.39,16330,9.25,73076.5,-5.73,-6.93,-6.85,0,*51
1508803367.62,16331,9.25,73062.5,-5.75,-6.93,-6.85,0,*56
1508803368.84,16332,9.25,73058.5,-5.75,-6.93,-6.85,0,*55
1508803370.07,16333,9.25,73054.3,-5.75,-6.93,-6.85,0,*54
1508803371.27,16334,9.25,73064.5,-5.75,-6.85,-6.81,0,*50
1508803372.47,16335,9.25,73062.0,-5.75,-6.85,-6.85,0,*55
1508803373.67,16336,9.25,73070.0,-5.75,-6.85,-6.85,0,*56
1508803374.89,16337,9.25,73080.8,-5.75,-6.93,-6.85,0,*50
1508803376.12,16338,9.25,73072.3,-5.75,-6.93,-6.85,0,*5F
1508803377.37,16339,9.25,73074.8,-5.75,-6.93,-6.97,0,*5D
1508803378.57,16340,9.25,73076.8,-5.75,-6.85,-6.81,0,*53
1508803379.79,16341,9.25,73072.5,-5.77,-6.89,-6.85,0,*58
1508803381.01,16342,9.25,73072.0,-5.75,-6.85,-6.93,0,*52
1508803382.24,16343,9.25,73086.5,-5.75,-6.85,-6.93,0,*53
1508803383.48,16344,9.25,73066.0,-5.73,-6.97,-6.85,0,*56
1508803384.75,16345,9.25,73072.3,-5.77,-7.01,-7.01,0,*50
1508803386.0,16346,9.25,73064.3,-5.73,-7.11,-7.05,0,*52
1508803387.19,16347,9.25,73066.0,-5.75,-6.85,-6.85,0,*50
1508803388.42,16348,9.25,73078.5,-5.75,-6.93,-6.85,0,*58
1508803389.65,16349,9.25,73068.3,-5.75,-6.93,-6.81,0,*5D
1508803390.85,16350,9.25,73066.5,-5.75,-6.73,-6.73,0,*56
1508803392.08,16351,9.25,73074.0,-5.75,-6.93,-6.81,0,*54
1508803393.28,16352,9.25,73072.0,-5.75,-6.81,-6.69,0,*52
1508803394.47,16353,9.25,73074.3,-5.75,-6.73,-6.69,0,*5E
1508803395.7,16354,9.25,73070.3,-5.75,-6.93,-6.85,0,*55
1508803396.9,16355,9.25,73080.3,-5.75,-6.85,-6.81,0,*57
1508803398.1,16356,9.25,73074.5,-5.75,-6.85,-6.73,0,*59
1508803399.29,16357,9.25,73084.8,-5.75,-6.81,-6.69,0,*57
1508803400.5,16358,9.25,73074.8,-5.75,-6.81,-6.81,0,*5E
1508803401.71,16359,9.25,73072.3,-5.75,-6.81,-6.81,0,*5F
1508803402.91,16360,9.25,73078.0,-5.75,-6.73,-6.59,0,*5D
1508803404.11,16361,9.25,73076.5,-5.75,-6.73,-6.59,0,*5C
1508803405.3,16362,9.25,73072.8,-5.75,-6.73,-6.69,0,*5C
1508803406.51,16363,9.25,73078.8,-5.75,-6.81,-6.81,0,*56
1508803407.7,16364,9.25,73084.8,-5.75,-6.73,-6.73,0,*51
1508803408.9,16365,9.25,73072.0,-5.75,-6.81,-6.69,0,*56
1508803410.1,16366,9.25,73072.0,-5.75,-6.73,-6.59,0,*5B
1508803411.29,16367,9.25,73078.5,-5.75,-6.69,-6.69,0,*52
1508803412.49,16368,9.25,73076.5,-5.75,-6.59,-6.59,0,*5D
1508803413.68,16369,9.25,73078.5,-5.75,-6.69,-6.69,0,*5C
1508803414.89,16370,9.25,73076.0,-5.73,-6.69,-6.69,0,*52
1508803416.12,16371,9.25,73080.0,-5.73,-6.59,-6.59,0,*53
1508803417.32,16372,9.25,73072.0,-5.75,-6.59,-6.59,0,*56
1508803418.54,16373,9.25,73062.3,-5.73,-6.69,-6.59,0,*52
1508803419.73,16374,9.25,73070.5,-5.75,-6.69,-6.69,0,*50
1508803420.93,16375,9.25,73074.0,-5.75,-6.73,-6.59,0,*59
1508803422.12,16376,9.25,73082.8,-5.75,-6.59,-6.69,0,*51
1508803423.34,16377,9.25,73068.3,-5.73,-6.69,-6.69,0,*55
1508803424.53,16378,9.25,73082.5,-5.75,-6.69,-6.59,0,*5F
1508803425.73,16379,9.25,73084.5,-5.75,-6.69,-6.59,0,*5E
1508803426.95,16380,9.25,73080.8,-5.73,-6.59,-6.59,0,*5D
1508803428.15,16381,9.25,73084.0,-5.75,-6.59,-6.55,0,*56
1508803429.37,16382,9.25,73074.3,-5.73,-6.69,-6.69,0,*5F
1508803430.56,16383,9.25,73074.3,-5.75,-6.69,-6.69,0,*58
1508803431.76,16384,9.25,73076.3,-5.75,-6.59,-6.59,0,*5F
1508803432.95,16385,9.25,73070.8,-5.75,-6.69,-6.69,0,*5E
1508803434.14,16386,9.25,73076.5,-5.75,-6.69,-6.69,0,*5D
1508803435.33,16387,9.25,73080.5,-5.75,-6.69,-6.69,0,*5C
1508803436.52,16388,9.25,73074.5,-5.75,-6.69,-6.59,0,*50
1508803437.74,16389,9.25,73080.5,-5.73,-6.69,-6.59,0,*57
1508803438.94,16390,9.25,73068.5,-5.75,-6.73,-6.73,0,*5A
1508803440.16,16391,9.25,73068.0,-5.73,-6.73,-6.59,0,*55
1508803441.35,16392,9.25,73064.0,-5.75,-6.69,-6.69,0,*58
1508803442.56,16393,9.25,73072.0,-5.75,-6.81,-6.81,0,*59
1508803443.77,16394,9.25,73070.0,-5.75,-6.81,-6.81,0,*5E
1508803444.96,16395,9.25,73070.8,-5.75,-6.81,-6.69,0,*59
1508803446.19,16396,9.25,73070.3,-5.73,-6.81,-6.81,0,*5A
1508803447.42,16397,9.25,73078.5,-5.73,-6.81,-6.81,0,*5B
1508803448.65,16398,9.25,73074.8,-5.73,-6.85,-6.81,0,*50
1508803449.85,16399,9.25,73066.5,-5.75,-6.85,-6.81,0,*57
1508803451.06,16400,9.25,73064.3,-5.75,-6.73,-6.81,0,*59
1508803452.28,16401,9.25,73068.3,-5.73,-6.73,-6.73,0,*53
1508803453.47,16402,9.25,73070.3,-5.75,-6.73,-6.69,0,*5D
1508803454.67,16403,9.25,73070.0,-5.75,-6.81,-6.73,0,*5A
1508803455.87,16404,9.25,73072.3,-5.75,-6.73,-6.73,0,*50
1508803457.07,16405,9.25,73078.5,-5.75,-6.81,-6.81,0,*51
1508803458.27,16406,9.25,73068.3,-5.75,-6.85,-6.85,0,*52
1508803459.47,16407,9.25,73060.5,-5.75,-6.85,-6.73,0,*5A
1508803460.68,16408,9.25,73068.5,-5.75,-6.81,-6.81,0,*5C
1508803461.9,16409,9.25,73068.5,-5.73,-6.73,-6.81,0,*56
1508803463.1,16410,9.25,73068.3,-5.75,-6.85,-6.81,0,*51
1508803464.31,16411,9.25,73070.3,-5.75,-6.85,-6.81,0,*50
1508803465.51,16412,9.25,73062.5,-5.75,-6.73,-6.59,0,*5F
1508803466.7,16413,9.25,73066.0,-5.75,-6.73,-6.73,0,*56
1508803467.9,16414,9.25,73060.8,-5.75,-6.81,-6.73,0,*5C
1508803469.1,16415,9.25,73068.5,-5.75,-6.73,-6.69,0,*5B
1508803470.3,16416,9.25,73072.5,-5.75,-6.73,-6.59,0,*5B
1508803471.49,16417,9.25,73078.3,-5.75,-6.81,-6.69,0,*54
1508803472.7,16418,9.25,73074.8,-5.75,-6.85,-6.81,0,*59
1508803473.9,16419,9.25,73068.5,-5.75,-6.81,-6.73,0,*51
1508803475.09,16420,9.25,73082.3,-5.75,-6.85,-6.85,0,*56
1508803476.29,16421,9.25,73084.3,-5.75,-6.85,-6.85,0,*57
1508803477.52,16422,9.25,73066.0,-5.75,-6.93,-6.85,0,*53
1508803478.71,16423,9.25,73068.0,-5.75,-6.85,-6.85,0,*55
1508803479.99,16424,9.25,73082.8,-5.73,-6.93,-6.93,0,*54
1508803481.26,16425,9.25,73078.8,-5.73,-6.93,-6.93,0,*55
1508803482.46,16426,9.25,73090.0,-5.75,-6.85,-6.73,0,*59
1508803483.65,16427,9.25,73076.8,-5.75,-6.73,-6.69,0,*5A
1508803484.88,16428,9.25,73074.0,-5.73,-6.81,-6.81,0,*58
1508803486.08,16429,9.25,73078.3,-5.75,-6.73,-6.73,0,*5F
1508803487.28,16430,9.25,73080.5,-5.75,-6.73,-6.73,0,*57
1508803488.47,16431,9.25,73078.0,-5.75,-6.73,-6.73,0,*56
1508803489.7,16432,9.25,73078.8,-5.75,-6.93,-6.85,0,*52
1508803490.95,16433,9.25,73070.0,-5.75,-6.97,-6.93,0,*50
1508803492.19,16434,9.25,73094.8,-5.75,-7.05,-6.97,0,*59
1508803493.39,16435,9.25,73078.8,-5.75,-6.85,-6.85,0,*52
1508803494.61,16436,9.25,73068.5,-5.77,-6.89,-6.89,0,*53
1508803495.86,16437,9.25,73074.3,-5.75,-6.97,-7.05,0,*5A
1508803497.11,16438,9.25,73072.8,-5.75,-6.93,-6.93,0,*5F
1508803498.36,16439,9.25,73076.5,-5.75,-6.97,-6.93,0,*5A
1508803499.61,16440,9.25,73072.3,-5.75,-6.93,-6.93,0,*50
1508803500.88,16441,9.25,73084.0,-5.73,-6.97,-6.93,0,*53
1508803502.13,16442,9.25,73080.3,-5.77,-6.97,-6.89,0,*5F
1508803503.35,16443,9.25,73082.5,-5.77,-6.89,-6.89,0,*51
1508803504.55,16444,9.25,73078.5,-5.75,-6.73,-6.73,0,*54
1508803505.77,16445,9.25,73082.8,-5.77,-6.77,-6.77,0,*57
1508803507.05,16446,9.25,73088.0,-5.77,-6.97,-6.97,0,*54
1508803508.27,16447,9.25,73086.3,-5.77,-6.85,-6.77,0,*58
1508803509.49,16448,9.25,73084.5,-5.77,-6.73,-6.73,0,*5A
1508803510.73,16449,9.25,73076.0,-5.77,-6.73,-6.63,0,*5A
1508803511.93,16450,9.25,73080.3,-5.75,-6.73,-6.73,0,*51
1508803513.15,16451,9.25,73084.0,-5.77,-6.85,-6.85,0,*52
1508803514.37,16452,9.25,73082.5,-5.77,-6.77,-6.73,0,*55
1508803515.62,16453,9.25,73086.5,-5.77,-6.85,-6.63,0,*58
1508803516.82,16454,9.25,73078.8,-5.79,-6.85,-6.73,0,*50
1508803518.04,16455,9.25,73072.3,-5.77,-6.77,-6.77,0,*56
1508803519.26,16456,9.25,73078.5,-5.77,-6.85,-6.85,0,*55
1508803520.47,16457,9.25,73084.0,-5.75,-6.81,-6.81,0,*56
1508803521.67,16458,9.25,73084.3,-5.75,-6.73,-6.73,0,*59
1508803522.86,16459,9.25,73080.3,-5.75,-6.85,-6.85,0,*58
1508803524.09,16460,9.25,73094.0,-5.77,-6.89,-6.77,0,*51
1508803525.35,16461,9.25,73078.5,-5.77,-6.63,-6.63,0,*51
1508803526.57,16462,9.25,73068.0,-5.77,-6.85,-6.89,0,*5E
1508803527.79,16463,9.25,73076.0,-5.77,-6.89,-6.89,0,*53
1508803529.0,16464,9.25,73084.8,-5.75,-6.73,-6.81,0,*5B
1508803530.22,16465,9.25,73078.8,-5.75,-6.93,-6.85,0,*50
1508803531.45,16466,9.25,73084.8,-5.75,-6.93,-6.85,0,*53
1508803532.65,16467,9.25,73072.8,-5.75,-6.81,-6.73,0,*58
1508803533.88,16468,9.25,73080.0,-5.77,-6.77,-6.77,0,*58
1508803535.07,16469,9.25,73068.5,-5.79,-6.85,-6.89,0,*5B
1508803536.32,16470,9.25,73090.0,-5.77,-6.97,-6.89,0,*5E
1508803537.54,16471,9.25,73076.3,-5.77,-6.85,-6.77,0,*5D
1508803538.82,16472,9.25,73074.3,-5.77,-6.97,-6.97,0,*53
1508803540.04,16473,9.25,73070.3,-5.79,-6.97,-6.89,0,*53
1508803541.29,16474,9.25,73066.3,-5.79,-6.97,-6.97,0,*5B
1508803542.54,16475,9.25,73074.5,-5.77,-6.89,-6.97,0,*5B
1508803543.76,16476,9.25,73078.8,-5.77,-6.89,-6.89,0,*57
1508803544.98,16477,9.25,73084.0,-5.77,-6.85,-6.77,0,*5B
1508803546.18,16478,9.25,73068.0,-5.75,-6.81,-6.73,0,*56
1508803547.41,16479,9.25,73068.8,-5.77,-6.77,-6.77,0,*58
1508803548.68,16480,9.25,73080.8,-5.77,-6.97,-6.97,0,*5E
1508803549.88,16481,9.25,73074.5,-5.79,-6.85,-6.85,0,*51
1508803551.1,16482,9.25,73072.5,-5.77,-6.89,-6.85,0,*50
1508803552.32,16483,9.25,73074.3,-5.77,-6.89,-6.85,0,*51
1508803553.54,16484,9.25,73082.8,-5.77,-6.89,-6.85,0,*56
1508803554.76,16485,9.25,73090.3,-5.77,-6.89,-6.85,0,*57
1508803555.98,16486,9.25,73090.5,-5.77,-6.85,-6.77,0,*55
1508803557.18,16487,9.25,73080.3,-5.75,-6.69,-6.81,0,*5D
1508803558.38,16488,9.25,73082.0,-5.79,-6.77,-6.85,0,*55
1508803559.58,16489,9.25,73084.8,-5.79,-6.77,-6.77,0,*59
1508803560.83,16490,9.25,73068.8,-5.77,-6.97,-6.89,0,*50
1508803562.05,16491,9.25,73068.3,-5.77,-6.89,-6.85,0,*52
1508803563.25,16492,9.25,73074.3,-5.79,-6.85,-6.85,0,*53
1508803564.45,16493,9.25,73076.0,-5.79,-6.85,-6.85,0,*52
1508803565.67,16494,9.25,73082.0,-5.77,-6.85,-6.77,0,*56
1508803566.89,16495,9.25,73088.5,-5.77,-6.77,-6.77,0,*5A
1508803568.12,16496,9.25,73078.5,-5.77,-6.77,-6.73,0,*5D
1508803569.34,16497,9.25,73082.0,-5.77,-6.85,-6.85,0,*58
1508803570.56,16498,9.25,73082.3,-5.79,-6.73,-6.63,0,*58
1508803571.78,16499,9.25,73082.3,-5.77,-6.77,-6.73,0,*52
1508803573.01,16500,9.25,73084.8,-5.77,-6.77,-6.77,0,*57
1508803574.23,16501,9.25,73066.8,-5.77,-6.85,-6.85,0,*56
1508803575.45,16502,9.25,73072.8,-5.77,-6.89,-6.85,0,*59
1508803576.67,16503,9.25,73072.5,-5.77,-6.77,-6.85,0,*59
1508803577.89,16504,9.25,73080.5,-5.77,-6.85,-6.85,0,*53
1508803579.12,16505,9.25,73076.0,-5.77,-6.85,-6.77,0,*5F
1508803580.34,16506,9.25,73072.8,-5.77,-6.89,-6.77,0,*50
1508803581.56,16507,9.25,73070.8,-5.77,-6.77,-6.77,0,*50
1508803582.76,16508,9.25,73062.0,-5.75,-6.85,-6.77,0,*50
1508803583.98,16509,9.25,73056.5,-5.77,-6.85,-6.77,0,*53
1508803585.18,16510,9.25,73060.8,-5.75,-6.81,-6.73,0,*59
1508803586.38,16511,9.25,73078.0,-5.75,-6.73,-6.73,0,*55
1508803587.6,16512,9.25,73074.5,-5.77,-6.85,-6.77,0,*59
1508803588.8,16513,9.25,73070.5,-5.75,-6.73,-6.73,0,*57
1508803590.04,16514,9.25,73062.0,-5.77,-6.85,-6.63,0,*5A
1508803591.25,16515,9.25,73058.3,-5.75,-6.81,-6.81,0,*51
1508803592.45,16516,9.25,73054.8,-5.75,-6.81,-6.73,0,*5F
1508803593.65,16517,9.25,73070.3,-5.75,-6.81,-6.73,0,*5E
1508803594.85,16518,9.25,73072.0,-5.75,-6.73,-6.73,0,*5C
1508803596.1,16519,9.25,73068.0,-5.77,-6.77,-6.63,0,*5A
1508803597.32,16520,9.25,73064.3,-5.77,-6.73,-6.73,0,*55
1508803598.58,16521,9.25,73068.0,-5.77,-6.63,-6.63,0,*54
1508803599.85,16522,9.25,73076.3,-5.77,-6.63,-6.63,0,*57
1508803601.12,16523,9.25,73076.8,-5.77,-6.63,-6.63,0,*56
1508803602.39,16524,9.25,73070.8,-5.77,-6.63,-6.63,0,*51
1508803603.63,16525,9.25,73068.8,-5.77,-6.73,-6.63,0,*51
1508803604.85,16526,9.25,73074.0,-5.77,-6.73,-6.73,0,*53
1508803606.05,16527,9.25,73076.0,-5.75,-6.69,-6.73,0,*5B
1508803607.24,16528,9.25,73070.3,-5.75,-6.73,-6.69,0,*54
1508803608.43,16529,9.25,73076.8,-5.75,-6.69,-6.73,0,*55
1508803609.63,16530,9.25,73068.5,-5.75,-6.73,-6.69,0,*5D
1508803610.85,16531,9.25,73066.3,-5.73,-6.73,-6.81,0,*5C
1508803612.07,16532,9.25,73070.0,-5.77,-6.89,-6.77,0,*57
1508803613.29,16533,9.25,73070.8,-5.77,-6.89,-6.89,0,*57
1508803614.52,16534,9.25,73074.8,-5.79,-6.97,-6.89,0,*51
1508803615.72,16535,9.25,73072.5,-5.75,-6.85,-6.85,0,*53
1508803616.97,16536,9.25,73074.3,-5.75,-6.93,-6.93,0,*50
1508803618.19,16537,9.25,73086.0,-5.77,-6.89,-6.89,0,*53
1508803619.41,16538,9.25,73066.0,-5.77,-6.85,-6.85,0,*5C
1508803620.63,16539,9.25,73064.3,-5.77,-6.85,-6.89,0,*51
1508803621.88,16540,9.25,73066.8,-5.77,-6.97,-6.85,0,*50
1508803623.08,16541,9.25,73070.8,-5.79,-6.89,-6.89,0,*5C
1508803624.3,16542,9.25,73070.5,-5.77,-6.89,-6.85,0,*5D
1508803625.52,16543,9.25,73070.0,-5.77,-6.77,-6.85,0,*5D
1508803626.72,16544,9.25,73078.5,-5.75,-6.73,-6.73,0,*55
1508803627.91,16545,9.25,73076.3,-5.75,-6.73,-6.73,0,*54
1508803629.14,16546,9.25,73082.0,-5.77,-6.85,-6.85,0,*55
1508803630.36,16547,9.25,73084.0,-5.79,-6.89,-6.97,0,*55
1508803631.63,16548,9.25,73086.3,-5.77,-7.01,-6.97,0,*55
1508803632.88,16549,9.25,73074.5,-5.79,-7.01,-7.01,0,*54
1508803634.07,16550,9.25,73086.0,-5.79,-6.89,-6.89,0,*5C
1508803635.32,16551,9.25,73080.3,-5.77,-6.97,-6.89,0,*5C
1508803636.52,16552,9.25,73078.5,-5.79,-6.89,-6.89,0,*5E
1508803637.74,16553,9.25,73072.5,-5.77,-6.89,-6.89,0,*51
1508803638.94,16554,9.25,73074.0,-5.79,-6.85,-6.85,0,*58
1508803640.16,16555,9.25,73078.3,-5.77,-6.77,-6.73,0,*53
1508803641.38,16556,9.25,73074.0,-5.77,-6.85,-6.85,0,*54
1508803642.6,16557,9.25,73074.3,-5.77,-6.73,-6.73,0,*55
1508803643.83,16558,9.25,73078.8,-5.77,-6.77,-6.73,0,*5E
1508803645.05,16559,9.25,73072.3,-5.77,-6.77,-6.73,0,*5F
1508803646.27,16560,9.25,73070.3,-5.77,-6.85,-6.77,0,*5C
1508803647.49,16561,9.25,73084.5,-5.77,-6.85,-6.77,0,*5D
1508803648.71,16562,9.25,73078.0,-5.77,-6.85,-6.77,0,*5E
1508803649.94,16563,9.25,73080.5,-5.77,-6.77,-6.73,0,*56
1508803651.14,16564,9.25,73074.3,-5.79,-6.77,-6.77,0,*5B
1508803652.36,16565,9.25,73080.8,-5.79,-6.77,-6.63,0,*5F
1508803653.63,16566,9.25,73082.0,-5.77,-6.63,-6.63,0,*57
1508803654.88,16567,9.25,73076.8,-5.77,-6.73,-6.63,0,*57
1508803656.12,16568,9.25,73072.3,-5.79,-6.63,-6.63,0,*57
1508803657.37,16569,9.25,73082.3,-5.77,-6.73,-6.63,0,*59
1508803658.59,16570,9.25,73082.3,-5.77,-6.73,-6.73,0,*50
1508803659.81,16571,9.25,73082.5,-5.77,-6.77,-6.77,0,*51
1508803661.04,16572,9.25,73078.3,-5.77,-6.77,-6.73,0,*56
1508803662.24,16573,9.25,73076.3,-5.79,-6.77,-6.77,0,*5D
1508803663.46,16574,9.25,73086.3,-5.77,-6.73,-6.73,0,*54
1508803664.73,16575,9.25,73090.0,-5.77,-6.63,-6.63,0,*55
1508803665.97,16576,9.25,73074.5,-5.77,-6.63,-6.73,0,*57
1508803667.23,16577,9.25,73090.0,-5.77,-6.63,-6.63,0,*57
1508803668.5,16578,9.25,73084.0,-5.77,-6.63,-6.63,0,*58
1508803669.7,16579,9.25,73084.8,-5.75,-6.69,-6.59,0,*58
1508803670.92,16580,9.25,73080.0,-5.73,-6.59,-6.59,0,*5B
1508803672.17,16581,9.25,73096.8,-5.77,-6.73,-6.63,0,*5F
1508803673.44,16582,9.25,73084.8,-5.77,-6.63,-6.63,0,*5D
1508803674.7,16583,9.25,73090.8,-5.77,-6.63,-6.63,0,*5C
1508803675.95,16584,9.25,73102.0,-5.77,-6.63,-6.55,0,*5E
1508803677.21,16585,9.25,73102.8,-5.77,-6.63,-6.63,0,*5A
1508803678.48,16586,9.25,73098.8,-5.77,-6.63,-6.63,0,*59
1508803679.72,16587,9.25,73098.5,-5.77,-6.63,-6.55,0,*5D
1508803680.97,16588,9.25,73092.5,-5.77,-6.63,-6.59,0,*5E
1508803682.19,16589,9.25,73096.3,-5.77,-6.59,-6.59,0,*56
1508803683.41,16590,9.25,73090.5,-5.77,-6.73,-6.73,0,*5E
1508803684.63,16591,9.25,73090.8,-5.77,-6.73,-6.73,0,*5F
1508803685.85,16592,9.25,73092.0,-5.77,-6.73,-6.73,0,*5C
1508803687.05,16593,9.25,73084.3,-5.75,-6.69,-6.59,0,*5C
1508803688.24,16594,9.25,73068.0,-5.75,-6.69,-6.73,0,*53
1508803689.46,16595,9.25,73042.0,-5.73,-6.73,-6.69,0,*54
1508803690.73,16596,9.25,73058.3,-5.73,-6.93,-6.93,0,*5C
1508803691.98,16597,9.25,73074.8,-5.75,-6.93,-6.93,0,*5B
1508803693.21,16598,9.25,73072.5,-5.75,-6.93,-6.85,0,*53
1508803694.43,16599,9.25,73074.8,-5.75,-7.11,-6.97,0,*5A
1508803695.68,16600,9.25,73080.5,-5.75,-6.93,-6.93,0,*56
1508803696.89,16601,9.25,73060.5,-5.75,-6.85,-6.81,0,*53
1508803698.08,16602,9.25,73068.3,-5.75,-6.85,-6.85,0,*54
1508803699.28,16603,9.25,73072.3,-5.75,-6.85,-6.73,0,*5C
1508803700.48,16604,9.25,73082.3,-5.75,-6.81,-6.73,0,*5F
1508803701.68,16605,9.25,73072.5,-5.75,-6.81,-6.73,0,*5E
1508803702.88,16606,9.25,73074.0,-5.75,-6.81,-6.59,0,*55
1508803704.14,16607,9.25,73082.3,-5.77,-6.77,-6.63,0,*56
1508803705.36,16608,9.25,73072.5,-5.77,-6.85,-6.77,0,*51
1508803706.55,16609,9.25,73060.0,-5.75,-6.73,-6.69,0,*54
1508803707.76,16610,9.25,73078.0,-5.75,-6.81,-6.81,0,*57
1508803708.96,16611,9.25,73070.8,-5.75,-6.81,-6.85,0,*52
1508803710.21,16612,9.25,73062.0,-5.75,-6.93,-6.93,0,*55
1508803711.46,16613,9.25,73066.0,-5.75,-6.93,-6.97,0,*50
1508803712.68,16614,9.25,73082.5,-5.77,-6.89,-6.89,0,*51